Location: Ferchesar
(52.6477°N, 12.4298°E)
Time: 23:17:02
(UTC+01:00)

TIGRISAT - Pass Details

Date: 18 October 2021
Orbit: 603 x 689 km, 97.7° (Epoch: 30 November)

Event Time Altitude Azimuth Distance (km) Brightness Sun altitude
Rises 05:36:40 0° 116° (ESE) 3,057 ? -19.6°
Reaches altitude 10° 05:39:33 10° 97° (E) 2,145 ? -19.2°
Maximum altitude 05:42:38 18° 56° (NE) 1,689 ? -18.7°
Drops below altitude 10° 05:45:42 10° 15° (NNE) 2,143 ? -18.2°
Sets 05:48:34 0° 357° (N) 3,053 ? -17.8°
